Regional Weather Roundup
Issued by NWS Little Rock, AR

Home | Current Version | Previous Version | Graphics & Text | Print | Product List | Glossary On
Versions: 1 2 3 4 5 6 7 8 9 10 11 12 13 14 15 16 17 18 19 20 21 22 23 24 25 26 27 28 29 30 31 32 33 34 35 36 37 38 39 40 41 42 43 44 45 46 47 48 49 50
000
ASUS44 KLZK 162305
RWRLZK

WEATHER ROUNDUP FOR ARKANSAS
NATIONAL WEATHER SERVICE LITTLE ROCK AR
600 PM CDT TUE SEP 16 2014

NOTE: "FAIR" INDICATES FEW OR NO CLOUDS BELOW 12,000 FEET WITH NO
SIGNIFICANT WEATHER AND/OR OBSTRUCTIONS TO VISIBILITY.

ARZ001-003-010-029-170000-
NORTHWEST ARKANSAS

CITY           SKY/WX    TMP DP  RH WIND       PRES   REMARKS
FAYETTEVILLE   CLOUDY    73  68  84 E5        30.07S
FORT SMITH     SUNNY     84  69  60 N7        30.01S HX  88
HARRISON       CLOUDY    67  64  90 E5        30.10S
BENTONVILLE    PTSUNNY   75  66  73 NE5       30.08S
ROGERS         CLOUDY    73  66  78 E6        30.08F
SILOAM SPGS    CLOUDY    73  64  73 CALM      30.08S
HIGHFILL       MOSUNNY   75  67  76 CALM      30.07S
SPRINGDALE     CLOUDY    73  68  83 NE7       30.10S
$$

ARZ004-005-016-170000-
NORTH CENTRAL ARKANSAS

CITY           SKY/WX    TMP DP  RH WIND       PRES   REMARKS
BATESVILLE     PTSUNNY   72  61  68 E7        30.07F
FLIPPIN        CLOUDY    68  59  73 E5        30.09F
MTN HOME       CLOUDY    67  62  84 E3        30.09S
$$

ARZ040-041-170000-
WEST CENTRAL ARKANSAS

CITY           SKY/WX    TMP DP  RH WIND       PRES   REMARKS
MENA           MOSUNNY   86  70  58 CALM      30.03F HX  90
MOUNT IDA      SUNNY     84  70  62 CALM      30.01S HX  88
$$

ARZ009-017-025-026-028-170000-
NORTHEAST ARKANSAS

CITY           SKY/WX    TMP DP  RH WIND       PRES   REMARKS
CORNING          N/A     68  59  73 CALM      30.09F
JONESBORO      CLOUDY    71  59  65 NE7       30.08S
NEWPORT        MOSUNNY   70  62  75 N8        30.08F
WALNUT RIDGE   CLOUDY    68  57  68 N7        30.09S
BLYTHEVILLE    CLOUDY    71  59  65 N8        30.08S
$$

ARZ022-023-033-042-044-170000-
CENTRAL ARKANSAS

CITY           SKY/WX    TMP DP  RH WIND       PRES   REMARKS
LITTLE ROCK    PTSUNNY   77  65  66 NE10      30.05S
N LITTLE ROCK  PTSUNNY   75  69  81 NE10      30.05S
JACKSONVILLE   CLOUDY    73  67  81 E5        30.06R
SEARCY         CLOUDY    74  67  78 E5        30.06F
HOT SPRINGS    PTSUNNY   82  71  69 E6        30.03R HX  86
RUSSELLVILLE     N/A    N/A N/A N/A MISG      30.05F
CLINTON        CLOUDY    72  70  94 CALM      30.08S
$$

ARZ036-170000-
EAST ARKANSAS

CITY           SKY/WX    TMP DP  RH WIND       PRES   REMARKS
WEST MEMPHIS   MOSUNNY   76  67  73 NE7       30.03F
$$

ARZ050-053-066-070-073-170000-
SOUTHWEST ARKANSAS

CITY           SKY/WX    TMP DP  RH WIND       PRES   REMARKS
ARKADELPHIA    FAIR      87  69  54 VRB3      30.00F HX  91
CAMDEN         SUNNY     86  66  51 N5        29.99F HX  88
TEXARKANA      SUNNY     87  69  54 VRB3      29.99F HX  91
EL DORADO      MOSUNNY   86  69  56 CALM      30.00F HX  90
DE QUEEN       SUNNY     86  69  56 CALM      29.98F HX  90
$$

ARZ056-057-069-170000-
SOUTHEAST ARKANSAS

CITY           SKY/WX    TMP DP  RH WIND       PRES   REMARKS
PINE BLUFF     SUNNY     81  69  67 N12       30.02S
STUTTGART      MOSUNNY   75  66  73 N9        30.05S
MONTICELLO     CLOUDY    87  70  56 NW5       29.99F HX  92

$$




USA.gov is the U.S. government's official web portal to all federal, state and local government web resources and services.